Theta_e
350 349 347 343 340 342 342 342 342 343 345 346 346 349 350 350 350 349 349 348 346 345 343 344 345 345 343 342 341 340 341 341 339 341 342 338 334 329 327 327 328 329 328 329 329 329 329 329 330 330 330 329 329 329 330 330 332 334 335 336 336 337 338 339 340 341 340 340 340 339 339 338 338 338 339 338 334 328 321 316 316 317 317 318 318
347 346 342 340 340 342 343 343 342 342 344 342 342 347 350 350 350 350 350 349 349 348 346 347 347 346 346 346 346 344 342 342 340 341 343 341 338 333 331 330 329 328 328 328 329 329 329 329 330 331 332 332 332 333 333 335 335 336 336 336 337 338 339 340 340 341 341 340 340 339 339 338 337 338 339 336 331 324 319 317 317 318 317 318 318
344 344 343 342 341 340 342 342 342 341 341 340 340 343 346 347 349 349 350 349 349 349 347 346 347 346 347 347 346 346 344 344 343 343 343 342 341 337 334 333 332 332 332 331 331 331 332 332 334 334 335 335 335 336 336 337 337 336 337 337 338 340 341 341 341 341 341 340 340 339 338 337 335 335 336 331 325 321 318 317 318 318 318 318 318
340 343 343 341 341 342 342 341 342 341 341 340 339 340 342 343 343 345 348 350 349 349 348 346 346 345 345 345 345 345 344 344 343 343 342 340 340 340 338 336 334 334 334 334 334 334 335 335 335 335 335 336 336 337 336 337 337 337 338 338 339 340 341 341 340 339 339 338 336 335 334 333 330 329 328 324 321 319 318 318 318 318 318 318 318
339 341 345 344 342 343 342 341 342 343 342 341 339 340 343 343 343 344 348 351 350 349 349 347 346 346 345 345 345 345 344 344 343 342 342 340 339 339 339 338 337 337 335 334 335 335 335 334 334 333 333 334 333 333 333 333 333 334 336 337 336 337 338 337 335 335 335 333 332 330 328 326 324 323 322 320 318 318 318 318 318 318 318 317 317
341 341 347 349 345 344 344 343 342 343 343 341 340 341 342 343 345 347 349 351 351 350 350 348 348 348 347 347 346 346 346 346 345 344 344 343 339 337 337 337 338 340 340 337 336 335 335 335 333 333 332 331 331 330 330 329 328 329 330 331 332 332 331 330 330 331 330 328 326 323 321 320 320 319 319 318 318 318 318 319 318 318 318 318 318
345 344 348 351 350 348 348 345 344 344 343 341 341 341 342 344 347 350 350 350 351 351 351 350 349 349 348 349 348 347 349 348 347 347 346 344 341 338 338 338 337 339 342 341 338 336 335 335 335 334 333 331 330 330 329 328 328 326 325 326 327 326 326 326 326 327 325 323 320 318 318 318 317 318 318 318 318 318 319 319 319 319 319 319 319
345 345 348 352 352 350 349 346 344 344 342 340 341 341 342 343 346 350 351 351 351 350 351 351 350 350 349 349 348 348 350 348 348 348 346 344 343 342 340 338 337 336 337 337 337 337 335 334 334 334 332 331 330 329 328 326 326 324 323 322 322 321 322 323 323 322 320 318 318 318 318 318 318 318 318 319 319 319 319 320 320 320 320 320 320
345 344 347 350 350 349 347 344 344 343 342 341 343 341 342 343 344 347 349 351 351 350 351 351 350 350 350 349 349 349 349 348 347 347 345 343 344 344 341 338 336 336 336 337 336 338 337 333 332 332 330 329 328 326 324 324 322 322 321 320 320 320 321 321 320 319 318 318 318 318 318 318 318 319 319 319 319 319 320 320 320 320 320 320 321
345 344 346 347 346 346 344 343 344 343 342 343 343 342 344 345 344 343 346 351 352 350 350 350 350 350 349 349 348 349 348 346 346 346 346 345 344 343 342 339 338 337 337 338 338 338 338 337 335 334 330 326 326 325 323 322 322 321 321 320 320 321 321 321 321 320 320 320 320 320 320 320 319 319 320 320 320 320 320 320 321 320 321 320 321
345 344 344 344 344 344 343 343 344 344 345 344 343 342 343 344 345 343 345 349 351 351 350 350 350 349 348 349 348 348 348 346 346 346 347 347 345 345 344 342 340 339 336 339 342 341 339 338 338 339 335 328 325 326 325 324 325 324 323 323 323 323 324 324 324 324 323 323 324 323 323 323 323 323 323 323 323 323 323 323 323 322 323 322 322
346 345 343 343 344 344 343 344 345 345 345 345 343 343 343 343 344 344 344 347 349 350 350 350 351 350 349 348 348 348 347 346 348 347 347 347 346 346 347 345 344 344 342 342 344 343 340 337 336 340 340 334 329 327 327 327 326 326 326 326 326 326 327 327 327 327 327 327 327 327 327 327 327 327 327 326 327 327 327 327 326 326 326 326 325
346 345 344 344 344 345 344 345 346 346 346 346 344 344 344 344 344 344 346 350 352 351 350 350 351 350 350 349 348 349 347 347 348 348 347 347 346 347 347 347 348 347 345 343 340 342 344 340 339 342 340 337 337 333 328 330 328 327 328 328 328 328 328 328 328 328 328 328 328 328 328 328 328 329 329 329 329 329 329 329 329 329 329 329 328
345 345 345 345 345 346 346 345 346 346 346 344 342 342 344 344 344 345 348 351 352 351 349 350 351 349 350 349 347 348 348 348 348 347 346 346 346 346 347 347 347 348 347 346 343 345 347 345 345 345 338 336 341 337 331 332 331 328 328 328 328 328 328 328 328 328 329 329 330 330 330 331 332 332 332 331 332 332 332 332 332 332 332 332 332
346 346 346 346 347 346 346 346 346 345 345 345 344 344 344 343 345 347 348 349 351 350 348 349 349 349 351 350 347 348 349 348 346 345 345 345 345 345 346 346 346 347 348 348 347 348 348 348 347 343 334 334 339 337 335 335 331 329 329 329 329 329 330 331 331 332 333 334 335 336 336 337 338 338 338 337 338 338 338 337 337 337 338 337 337
346 346 346 346 346 346 346 346 346 345 345 346 346 345 344 344 345 346 349 350 350 349 348 348 348 349 351 350 347 347 346 345 345 345 344 344 345 344 345 346 345 346 347 348 348 347 348 350 347 340 333 334 336 337 340 340 334 332 332 333 333 333 334 335 336 338 338 339 340 340 342 342 343 344 343 342 343 343 343 342 342 341 342 342 343
345 346 345 345 345 347 346 345 346 346 345 346 347 347 345 346 346 345 349 352 350 348 347 348 347 348 349 350 349 347 346 346 345 345 345 344 345 344 345 346 345 345 347 347 346 348 348 348 346 342 337 339 340 340 344 343 339 337 337 336 335 335 337 338 339 341 341 342 342 343 344 344 345 346 345 345 345 345 345 345 344 343 344 347 349
345 345 345 344 346 347 346 346 346 344 344 346 347 346 347 349 347 345 349 350 349 349 347 348 348 346 348 350 350 348 349 350 347 346 346 345 344 344 344 345 344 344 345 346 346 346 347 346 346 346 344 344 344 344 345 344 341 338 338 338 337 337 339 339 341 342 342 343 343 344 345 345 346 346 346 346 346 346 346 345 343 344 348 351 353
346 345 343 342 344 346 345 346 345 344 344 344 345 349 351 351 346 346 348 346 346 349 347 347 349 348 349 349 349 350 351 350 350 349 347 346 345 344 343 343 343 342 343 344 344 344 345 346 348 348 347 344 343 344 346 344 341 340 339 339 339 339 340 340 342 343 344 344 344 344 345 345 346 346 347 347 346 347 346 344 345 348 352 354 354
345 344 342 341 342 343 344 345 345 344 344 343 347 352 351 347 344 344 344 343 345 349 348 348 348 349 350 350 350 351 352 351 350 350 349 347 345 344 343 342 341 342 342 342 343 343 345 345 347 347 348 346 342 342 344 343 340 340 339 338 337 337 338 338 338 340 341 340 341 341 342 343 345 346 347 347 346 344 344 345 349 353 355 355 356
345 344 343 341 341 342 342 343 344 342 344 347 349 349 346 344 345 343 342 343 344 346 348 349 349 349 350 351 351 351 352 351 350 350 350 347 345 344 343 342 342 341 342 343 342 343 344 344 346 347 348 348 345 342 342 341 340 340 338 336 335 335 334 335 335 336 336 336 337 338 340 343 345 346 346 345 344 344 347 351 354 356 356 357 358
345 344 344 343 342 342 342 342 343 342 344 348 348 346 344 344 345 344 343 343 343 343 347 349 349 349 349 350 351 352 352 352 350 350 350 348 346 344 342 343 343 342 343 343 342 343 344 345 347 348 350 350 346 342 341 341 340 338 336 334 333 332 333 333 334 336 337 338 339 341 344 346 347 347 347 348 349 351 353 355 356 356 357 358 357
347 346 344 344 343 343 342 342 343 343 343 345 347 348 348 346 344 344 344 343 342 344 345 348 348 347 348 349 350 352 352 352 352 350 349 348 347 344 343 343 343 343 343 342 343 343 345 346 348 348 349 348 344 341 341 341 337 333 332 331 331 331 331 332 334 336 339 342 346 348 349 350 350 352 352 353 353 353 353 354 354 355 355 355 357
348 347 345 344 344 343 344 342 342 343 343 344 346 349 351 350 345 343 344 343 343 344 345 349 350 348 348 349 350 351 351 351 351 350 350 349 348 346 344 343 345 344 341 342 343 343 345 348 349 346 344 342 342 341 340 338 333 330 330 330 329 329 329 331 333 335 337 343 348 350 351 352 353 353 353 352 351 350 350 350 351 352 354 354 353
346 347 346 344 344 343 344 343 343 343 344 345 345 345 347 347 345 344 344 343 343 343 344 349 352 351 350 350 350 350 350 350 350 349 349 349 348 347 345 344 345 343 341 341 342 344 346 348 348 344 339 338 340 337 337 338 333 329 329 328 327 328 328 328 330 332 333 337 343 348 350 351 351 350 349 348 347 347 347 349 351 351 351 348 343
346 345 345 345 344 343 343 345 345 344 344 345 345 345 344 345 345 345 346 345 344 343 344 348 351 350 350 351 351 351 350 350 350 349 348 347 346 347 347 346 344 342 342 342 342 346 347 348 348 342 334 333 334 332 331 335 333 328 328 329 328 328 327 327 328 329 331 332 336 340 343 346 346 345 346 345 344 346 349 350 348 346 342 337 334
346 343 343 343 343 343 343 344 345 344 345 346 346 346 345 345 346 346 346 345 343 343 344 348 351 350 350 351 351 351 352 350 350 349 349 349 347 347 348 348 346 344 343 343 344 344 346 349 348 342 333 330 331 330 329 332 332 328 328 330 330 328 327 327 327 328 329 330 331 334 337 340 342 341 342 342 345 349 349 345 339 335 332 330 329
347 343 342 342 343 343 343 343 345 345 346 346 346 346 346 346 345 344 346 346 345 344 344 346 349 349 349 350 349 351 353 352 352 352 350 350 349 347 348 350 349 347 346 347 347 345 346 349 348 344 336 330 332 334 334 337 335 329 329 330 329 328 326 326 327 327 327 328 328 331 333 336 338 339 340 341 347 349 343 337 332 330 329 327 327
347 345 343 341 342 343 343 344 344 345 346 346 346 346 346 346 345 344 346 347 346 345 345 346 349 350 351 350 349 350 353 352 353 353 350 349 348 346 347 348 347 350 350 349 348 348 348 349 350 349 338 331 336 342 344 344 335 327 330 330 328 328 327 326 326 325 326 326 326 328 330 333 335 336 338 343 348 347 339 333 330 329 328 327 327
348 346 344 341 342 342 342 343 343 344 344 345 345 345 346 346 346 345 345 345 345 345 345 345 348 351 352 352 351 351 352 351 352 353 350 347 348 347 347 345 344 350 353 352 351 349 348 349 350 351 343 337 342 350 353 350 337 328 330 330 329 329 326 326 326 325 326 325 326 327 328 332 334 336 340 346 349 344 337 333 332 331 329 328 327
344 345 342 342 342 341 340 340 342 343 343 343 344 344 345 345 345 347 347 345 344 345 346 346 350 351 348 350 351 350 352 351 351 354 352 348 349 349 349 345 341 346 349 351 354 350 349 352 349 351 350 344 342 345 347 348 339 330 330 330 329 328 327 328 327 324 326 326 325 327 329 332 336 338 342 348 348 344 337 335 335 335 332 329 327
340 342 342 343 343 342 342 341 342 343 342 342 343 342 343 343 344 350 352 348 344 345 348 350 353 351 346 346 347 347 349 351 351 353 352 350 350 350 349 347 345 345 343 347 353 354 353 351 348 352 352 345 342 338 335 340 338 330 330 330 329 328 329 333 332 326 325 327 325 326 328 332 337 341 344 348 349 345 340 339 340 340 337 332 329
337 339 340 342 342 341 344 346 345 345 342 342 342 342 343 343 341 346 349 347 344 345 346 349 351 350 345 344 345 345 345 346 350 353 352 351 351 350 350 349 348 349 347 345 351 355 353 349 348 350 347 340 341 338 331 335 336 332 330 329 329 330 327 330 337 334 326 325 326 325 327 332 337 343 345 347 348 347 343 342 344 344 344 339 332
334 336 337 341 341 339 343 346 345 344 343 341 342 342 342 343 343 345 347 344 343 344 344 345 347 348 346 343 344 346 345 344 346 350 351 351 351 351 351 351 351 352 351 346 345 349 352 352 349 350 347 341 339 337 332 333 334 331 330 329 331 334 327 326 339 342 332 324 325 324 325 330 335 342 346 345 347 348 347 346 347 347 349 347 341
334 333 335 339 340 337 340 342 340 340 341 340 341 341 341 341 341 344 346 344 343 343 342 342 344 346 346 345 346 348 349 347 344 346 351 351 350 350 349 349 349 350 350 345 339 341 348 350 348 348 350 344 335 335 332 331 332 331 331 330 330 332 328 324 337 347 338 325 324 325 324 328 333 340 345 346 346 347 347 348 349 349 349 350 348
335 334 333 335 337 335 336 338 337 338 339 339 339 338 337 335 332 332 335 335 335 339 340 342 346 347 346 346 347 350 351 349 344 344 348 349 347 346 345 343 341 341 342 341 337 336 338 341 342 342 343 338 333 334 332 330 331 330 330 330 328 330 329 328 340 349 340 326 323 325 323 326 331 337 342 345 346 347 347 348 349 350 350 350 351
334 333 332 333 334 333 334 335 335 335 336 337 336 334 332 331 328 328 330 328 328 331 333 335 339 341 342 344 346 348 349 348 345 345 348 348 346 343 343 343 341 339 337 337 337 337 336 337 339 338 336 336 336 335 333 331 329 329 330 329 329 329 326 328 338 345 342 335 328 325 324 325 328 333 338 343 346 345 345 346 347 348 349 350 351
332 331 331 331 332 332 331 331 332 332 334 335 333 329 330 333 330 329 331 331 328 328 328 330 333 335 336 338 339 341 343 344 346 348 349 347 345 345 343 341 340 339 337 336 337 336 337 337 337 338 339 341 339 336 334 333 330 329 327 325 330 334 331 329 331 336 344 344 334 329 329 328 327 331 335 339 341 342 342 342 343 345 348 351 352
331 332 332 330 329 330 331 331 330 330 332 334 332 327 326 329 329 327 329 332 331 330 329 331 336 339 339 340 339 339 337 338 341 345 346 344 344 346 345 339 337 338 338 340 340 339 340 340 342 345 348 348 344 339 336 333 330 329 329 330 335 339 336 332 328 330 338 338 335 338 339 332 328 329 331 334 336 337 340 340 342 345 347 351 352
329 332 334 333 329 328 329 330 330 330 330 332 332 329 325 326 326 325 326 328 330 331 330 330 333 337 341 343 344 343 340 335 335 338 342 343 342 343 343 340 338 338 339 342 343 342 343 345 347 348 348 347 342 339 339 338 337 337 337 337 335 333 333 336 337 336 334 329 333 343 344 339 338 336 333 333 335 337 339 340 341 345 346 348 352
332 331 333 335 334 329 327 328 328 328 328 329 329 328 326 325 326 326 325 325 326 327 328 329 330 331 334 338 342 345 342 335 331 334 336 338 338 338 338 337 337 337 337 338 339 339 340 343 345 346 346 346 346 346 349 351 349 346 340 337 336 338 343 346 346 344 340 333 333 337 338 339 346 349 344 341 342 341 339 339 339 341 343 346 349
340 337 334 335 336 334 329 327 327 327 327 326 326 325 325 325 325 325 325 325 325 325 325 326 327 328 330 334 338 339 334 328 328 331 333 333 335 335 335 335 335 336 336 335 336 337 337 340 344 347 350 351 350 350 350 350 350 349 347 346 348 350 352 351 350 349 346 340 336 335 331 330 339 346 344 347 350 345 338 339 340 341 342 344 345
344 343 341 338 337 338 337 332 328 327 326 326 326 325 325 325 326 325 325 325 325 326 326 326 326 326 328 330 332 331 328 323 324 328 331 332 334 334 334 334 334 334 335 335 335 336 337 340 345 348 350 350 349 348 347 345 346 350 353 353 353 352 352 353 355 355 350 343 339 336 331 329 333 335 333 341 350 345 336 340 343 342 343 343 344
345 344 345 344 342 342 342 340 336 332 328 326 326 326 326 325 325 326 326 326 326 327 327 325 325 326 326 326 328 332 332 328 324 325 329 331 332 333 334 333 334 334 334 335 335 335 336 340 344 346 348 347 347 344 343 342 341 344 346 346 347 350 351 351 353 354 351 347 342 338 334 335 338 338 336 343 349 344 335 338 342 343 343 343 343
345 345 345 345 345 345 344 344 343 341 336 330 325 324 325 325 325 325 325 326 328 331 330 327 325 324 325 324 324 328 331 329 323 323 326 328 330 333 333 333 334 334 333 333 333 334 335 335 338 340 340 339 336 334 335 334 331 330 330 333 341 348 350 349 349 351 349 345 341 339 335 335 341 347 350 351 351 343 336 338 341 342 344 344 344
344 345 346 345 345 346 346 346 346 345 345 341 333 326 323 323 323 323 324 324 325 327 327 326 325 323 323 324 323 322 324 324 323 323 323 326 329 332 333 333 334 334 334 334 334 333 333 333 333 333 332 332 330 328 329 329 327 328 327 330 337 343 346 345 342 341 339 335 335 336 336 338 344 352 353 353 352 345 338 339 342 343 344 344 346
346 345 346 346 346 345 346 347 347 348 348 348 344 337 331 327 326 324 324 324 324 325 324 323 324 323 321 322 322 322 322 321 322 322 322 324 327 330 332 332 333 333 333 333 333 333 334 332 332 332 331 331 331 329 329 329 330 330 330 332 332 334 337 337 334 331 333 336 335 336 342 347 350 353 353 354 353 351 346 344 343 344 346 347 348
348 348 346 346 346 347 347 348 348 349 350 350 350 347 341 337 335 333 332 330 327 327 327 326 325 324 324 322 322 321 321 321 322 322 323 325 326 329 332 333 333 335 336 335 334 332 333 334 333 333 332 331 331 330 329 331 331 331 332 335 333 333 337 341 338 335 340 347 346 342 346 351 352 352 354 354 353 353 352 350 346 346 349 350 350
348 349 348 347 347 347 347 348 348 348 350 351 351 351 349 348 347 345 343 340 337 334 332 330 329 328 325 324 322 322 322 322 322 322 323 325 327 329 332 334 334 337 341 343 340 335 332 333 333 332 331 331 331 330 329 329 330 331 334 335 332 333 343 348 349 348 347 350 349 348 350 352 352 352 353 354 353 352 352 353 350 349 351 352 351
348 349 350 350 350 349 348 348 349 349 350 351 352 352 352 352 352 352 350 350 348 344 340 336 335 332 330 325 323 323 324 323 323 323 324 326 328 330 332 334 334 335 339 344 346 345 341 338 334 333 333 331 330 330 330 329 330 331 334 334 332 337 347 352 353 354 353 350 349 351 352 352 352 353 354 355 354 352 351 353 352 350 352 353 352
349 349 351 352 352 352 351 350 350 350 351 351 352 352 353 353 353 353 353 354 353 352 348 345 342 338 335 331 327 324 324 324 325 326 326 328 330 331 332 334 335 335 337 342 346 349 351 349 342 334 332 331 330 330 329 330 331 332 333 332 331 336 345 350 353 355 355 352 351 350 348 349 351 353 353 354 355 354 353 353 352 351 352 352 353
Wind_Speed
8 8 8 9 11 11 12 13 14 14 14 13 13 12 11 11 11 10 10 9 8 9 10 10 9 10 10 11 11 11 11 9 10 10 8 8 7 6 6 6 6 5 5 5 4 5 5 5 5 5 4 4 5 6 6 6 7 7 7 7 8 9 9 8 8 8 9 9 9 9 9 9 9 9 9 9 9 10 10 10 9 9 9 8 8
8 8 9 9 9 9 10 11 12 13 13 12 12 12 10 10 10 10 10 9 9 9 9 9 9 8 9 9 8 8 9 9 9 9 8 8 7 7 7 7 7 7 7 6 6 6 6 5 5 5 5 5 6 6 6 6 6 6 6 7 8 8 8 8 8 8 8 9 9 9 9 9 9 8 8 8 8 9 9 9 9 8 8 8 7
8 9 8 8 8 8 9 10 10 11 12 12 12 11 11 10 10 10 10 9 9 9 9 9 9 8 8 8 8 7 7 7 7 7 7 7 7 6 7 7 7 7 7 7 6 5 5 5 5 5 5 5 5 5 4 5 5 6 7 7 7 7 7 7 8 8 8 8 8 8 8 8 8 7 7 7 8 8 8 8 8 7 7 7 7
8 9 8 7 8 7 7 8 9 9 10 11 11 11 11 11 11 12 11 9 9 10 9 9 8 8 8 8 8 7 7 7 6 6 6 7 7 6 6 6 7 7 7 6 6 5 4 4 4 5 5 4 4 4 4 5 6 6 6 6 7 7 6 7 8 8 8 8 8 8 8 8 7 7 7 7 7 7 7 7 7 7 7 7 7
8 8 8 7 7 6 6 6 7 8 9 10 11 11 11 11 12 12 11 9 8 9 9 9 8 8 8 7 8 7 7 7 6 6 6 6 6 7 6 6 6 6 6 6 6 5 5 5 5 5 5 5 5 5 6 6 6 5 5 6 7 6 6 7 8 8 8 8 7 7 7 7 7 6 7 7 6 7 7 7 7 7 8 7 7
7 8 6 5 5 5 5 5 6 7 7 9 10 10 11 11 11 10 10 9 7 8 8 8 8 8 7 7 7 7 7 7 6 6 6 5 5 7 7 6 5 5 4 5 6 6 6 6 6 6 6 6 6 6 6 6 6 6 6 6 6 6 6 7 7 7 7 7 7 7 7 6 6 6 6 6 6 7 7 7 7 8 8 8 7
6 7 6 4 3 3 4 4 5 6 7 8 9 9 9 10 10 8 8 8 7 8 8 7 7 7 7 6 6 7 6 6 6 6 6 5 5 6 6 6 5 5 4 4 5 6 6 6 5 6 6 6 6 6 6 6 6 6 6 6 6 6 6 7 7 7 7 7 7 7 6 6 6 6 6 6 7 7 7 7 7 7 7 7 7
5 6 6 4 3 3 3 3 5 6 7 8 8 9 8 9 10 8 7 8 7 7 7 7 6 6 6 6 6 6 6 5 5 5 4 4 5 5 5 6 6 6 5 5 5 5 6 6 6 6 6 6 6 6 6 6 5 5 6 6 6 6 6 6 6 7 7 7 7 6 6 6 6 7 7 7 7 7 7 8 7 7 7 7 6
5 5 6 5 4 4 3 3 5 7 7 8 8 8 8 8 8 9 9 8 6 6 6 6 5 5 5 5 5 5 5 4 5 5 4 4 5 4 5 6 5 5 6 5 5 4 5 6 6 7 7 6 6 6 5 5 5 5 5 6 6 6 6 6 7 7 7 6 6 7 7 7 7 7 7 7 7 7 7 7 7 7 6 6 6
5 5 5 5 5 4 4 4 6 7 8 8 8 8 9 8 8 9 10 8 6 5 5 5 5 4 4 4 4 4 4 4 5 5 5 4 5 5 5 5 5 5 4 4 4 3 3 5 6 7 7 6 5 5 5 5 6 6 6 6 6 6 6 7 7 7 6 6 6 7 7 7 7 7 7 7 7 7 7 7 6 6 6 6 6
5 5 4 5 4 3 4 5 6 7 7 8 8 8 9 9 8 8 9 8 7 6 5 5 4 4 4 3 3 4 4 4 4 4 5 4 4 5 4 4 4 4 3 4 4 3 3 4 5 5 5 5 6 5 5 6 6 6 6 6 6 6 7 7 7 6 6 6 7 7 7 7 7 7 7 7 7 7 7 7 6 6 6 6 6
5 5 5 5 4 4 5 5 6 7 7 7 8 8 9 9 9 8 8 8 6 5 4 4 3 3 3 3 3 3 3 4 4 4 4 4 3 5 3 2 3 4 3 3 3 3 4 5 5 4 3 4 5 6 6 6 7 7 7 6 6 7 7 7 6 6 6 6 6 6 7 7 7 7 7 7 7 7 7 7 7 7 7 7 7
5 5 5 5 4 4 5 6 6 7 7 7 8 8 9 9 9 9 8 7 5 4 4 4 3 3 3 3 3 3 3 4 4 4 4 4 3 3 3 2 2 3 3 2 3 4 4 4 4 4 3 4 4 5 6 6 7 7 7 7 7 7 7 6 6 6 6 6 6 6 6 6 6 6 6 7 7 7 7 8 8 8 8 9 8
5 5 5 5 5 5 5 6 6 7 7 8 8 8 9 9 9 8 7 6 4 3 4 4 4 3 4 4 4 5 4 4 4 4 4 4 3 3 3 3 3 2 2 3 4 5 3 3 3 3 4 5 4 4 6 6 6 6 6 7 7 6 6 6 5 5 5 5 5 6 6 6 6 7 7 7 8 8 8 9 9 10 10 10 10
5 5 5 5 5 6 6 6 7 8 8 8 8 8 9 9 9 8 6 5 4 4 4 4 3 3 4 5 5 5 6 6 5 5 5 4 4 3 3 3 3 2 3 3 3 3 2 1 2 4 5 6 5 5 6 6 6 6 6 6 6 5 5 5 4 4 4 5 5 6 6 6 7 7 8 9 9 9 9 10 10 11 11 11 11
5 4 5 4 5 6 6 6 6 7 8 8 7 8 9 9 8 8 7 5 4 3 3 4 4 3 4 4 4 5 7 7 6 6 5 5 4 4 3 3 3 3 3 3 2 2 2 2 2 4 6 6 6 6 6 5 5 5 5 5 4 4 4 4 5 5 5 5 6 6 7 7 8 8 9 10 10 10 11 12 12 12 12 12 12
5 5 5 4 5 5 6 6 6 6 7 7 7 7 8 8 7 7 7 5 4 3 3 3 4 5 5 4 3 5 6 6 5 5 4 4 4 3 3 3 2 3 3 2 2 2 2 1 2 5 6 7 7 6 5 4 4 4 4 4 5 5 6 6 6 6 7 8 8 9 9 10 10 11 12 12 13 13 14 14 14 13 13 13 13
5 5 5 4 5 5 6 6 5 6 6 6 7 7 6 6 6 7 6 5 5 4 3 3 3 4 5 4 4 4 4 3 4 4 4 4 3 3 3 3 2 3 3 2 2 3 2 2 3 4 5 6 5 5 5 4 4 5 6 7 8 8 9 9 9 9 10 11 12 12 13 13 13 14 14 15 15 16 16 15 15 14 14 14 14
5 5 5 5 5 5 5 5 5 5 5 6 6 6 5 6 7 7 5 5 5 4 3 2 2 3 3 3 2 2 3 3 3 4 4 3 3 3 3 3 3 3 3 3 3 3 2 2 2 2 3 4 5 5 5 5 7 8 9 10 10 10 11 11 11 12 12 13 14 14 14 15 15 15 16 16 16 16 16 15 14 14 15 15 15
6 6 6 5 5 5 5 5 5 5 5 5 6 5 6 6 6 6 6 5 5 4 3 2 2 3 2 2 1 1 3 3 2 3 3 3 4 3 3 3 4 4 4 3 3 3 3 2 2 1 2 4 6 6 6 8 9 10 11 11 11 12 12 12 12 13 13 14 15 15 15 15 15 15 15 15 15 15 14 13 13 14 15 16 17
7 6 6 6 5 5 5 5 5 5 5 5 5 5 6 6 6 6 5 5 5 4 3 2 2 2 1 2 2 1 2 2 1 3 2 3 4 4 4 4 4 4 4 3 3 3 3 2 2 2 2 3 5 6 7 8 10 10 11 12 12 13 13 14 14 13 13 14 14 14 14 14 14 14 14 14 13 13 13 14 14 15 16 17 19
7 7 7 6 6 5 5 5 5 6 6 5 5 5 5 6 6 6 6 5 5 4 3 2 1 1 0 0 1 1 2 2 1 1 2 2 2 3 4 4 4 4 3 3 3 3 3 3 2 2 3 3 5 6 6 8 9 10 11 12 13 13 14 14 14 14 14 13 13 13 13 13 13 13 13 13 13 14 15 16 16 17 17 18 19
7 7 7 7 7 6 6 6 5 6 6 6 6 5 4 5 6 6 6 6 5 4 3 2 2 1 1 1 1 1 1 2 1 1 1 2 1 1 3 3 3 4 3 2 3 2 2 3 2 1 2 4 5 6 6 8 9 10 11 11 12 13 14 14 15 14 14 14 13 13 13 13 13 13 14 15 15 16 17 17 18 18 19 19 19
8 7 7 7 7 7 7 6 6 6 6 6 6 6 6 5 6 6 6 6 6 5 4 2 2 1 1 2 2 1 1 0 1 1 1 2 2 1 3 3 2 3 3 2 2 2 2 2 1 1 2 4 5 6 7 9 9 10 10 11 12 14 15 15 16 16 16 15 14 14 13 13 14 15 16 17 17 18 18 19 19 19 19 19 19
9 8 8 8 8 7 7 7 6 6 6 6 6 6 6 6 6 5 6 6 6 6 5 3 3 2 2 2 2 1 1 1 1 1 1 1 2 1 2 2 1 2 3 1 2 2 1 1 1 2 4 5 6 7 8 8 9 10 11 12 13 15 17 17 17 17 17 16 15 14 14 15 16 17 17 18 19 20 19 18 18 18 18 18 17
10 9 8 8 8 7 7 7 7 7 6 6 6 5 6 5 5 5 5 6 6 6 6 5 4 4 3 3 2 1 2 1 1 2 1 1 1 0 1 0 1 2 3 2 2 2 0 1 2 4 5 5 6 7 7 7 9 11 12 14 15 16 17 18 18 17 17 17 16 16 16 16 17 18 19 20 20 20 18 17 17 17 17 17 17
11 10 9 9 9 8 8 8 7 7 7 6 6 6 6 5 5 6 5 6 6 6 6 6 6 5 4 4 3 2 2 2 2 2 1 1 1 0 1 0 1 2 2 2 3 2 1 1 1 4 5 6 6 7 8 9 10 13 14 15 16 17 17 18 18 18 18 18 18 18 18 18 18 19 20 20 20 19 18 17 17 17 17 18 19
12 11 11 10 10 9 9 9 8 8 8 7 7 7 6 6 6 5 5 6 5 6 6 6 7 6 6 6 5 3 2 3 3 2 2 2 1 1 2 2 1 1 2 2 2 2 2 1 3 7 7 6 7 8 9 10 11 13 15 15 16 17 17 18 18 19 19 19 20 19 19 19 20 20 20 20 20 19 18 17 17 18 19 20 21
13 12 12 12 11 10 10 10 9 9 9 8 8 8 7 6 6 6 6 6 5 5 6 6 6 6 6 7 6 5 4 5 4 3 4 3 2 2 2 1 1 2 1 1 1 1 2 2 3 8 9 7 8 9 9 10 12 14 14 14 15 16 17 18 18 19 19 20 20 20 20 21 21 21 20 19 18 18 18 17 18 19 21 22 22
15 15 14 13 12 12 11 11 10 10 9 9 9 9 8 7 7 6 6 6 5 5 5 6 6 6 6 6 7 6 6 6 4 4 5 4 3 2 1 1 1 2 1 3 1 1 3 3 3 6 9 8 7 7 7 10 13 14 14 15 15 15 17 18 18 19 20 20 20 21 21 21 21 21 19 18 17 17 17 17 18 20 22 22 22
17 17 16 14 13 13 13 12 11 11 10 10 10 9 9 8 7 7 7 6 6 5 5 5 5 6 7 7 7 7 7 7 6 6 7 6 5 3 3 3 3 2 3 3 3 3 3 4 4 6 8 8 7 6 6 9 13 14 14 15 15 16 17 18 19 20 20 20 21 21 21 21 20 19 18 17 17 16 16 17 19 21 22 22 22
19 19 17 16 15 14 14 13 12 12 11 10 10 10 10 9 8 8 8 7 6 6 6 6 6 7 7 7 7 7 8 9 8 7 7 7 6 5 4 5 5 5 5 5 5 6 5 5 6 6 6 8 8 8 8 9 12 14 14 15 16 17 16 17 19 22 21 20 21 21 21 20 19 18 17 16 16 16 16 17 18 20 22 22 21
20 20 19 19 18 16 15 14 13 13 12 12 11 11 10 10 9 9 9 9 7 7 8 8 8 8 7 7 7 8 8 9 9 8 8 8 7 6 6 6 5 6 7 7 7 8 7 6 6 7 7 7 7 9 9 9 11 13 14 15 16 17 17 15 16 20 22 21 21 21 21 20 19 17 16 16 16 16 16 16 18 19 21 22 22
21 21 21 20 20 19 17 16 15 14 13 13 13 12 11 11 10 9 9 9 8 9 9 9 9 8 8 8 8 8 8 9 10 10 9 8 8 8 7 7 6 6 8 10 9 9 9 8 7 8 9 9 8 9 10 10 11 13 13 14 14 14 17 16 14 16 21 22 21 21 20 20 19 17 16 17 16 16 16 16 18 19 21 22 23
22 22 22 21 21 21 20 19 18 16 15 15 14 14 13 11 10 10 10 10 10 9 9 9 9 9 9 9 9 8 9 10 11 11 10 10 10 10 10 10 9 9 10 12 12 11 11 10 10 9 9 10 10 10 10 11 11 13 13 14 14 15 17 18 13 13 19 22 20 20 20 19 19 18 17 17 17 16 16 17 18 19 21 22 23
23 23 23 23 23 23 22 21 20 19 18 17 16 15 14 13 12 11 11 11 10 10 10 10 10 10 11 10 10 10 10 11 12 12 12 13 13 13 14 14 14 13 12 13 14 13 13 14 13 12 12 13 12 12 12 12 12 14 14 14 16 16 17 17 12 11 19 23 21 20 19 18 19 18 18 18 17 17 17 17 19 20 21 22 23
24 24 24 24 24 24 23 22 22 21 20 19 19 18 16 15 14 13 12 11 10 10 10 10 11 12 12 12 12 12 12 13 13 13 13 14 15 15 15 15 15 14 14 14 15 15 15 16 16 16 16 16 15 14 14 14 14 15 15 16 16 17 18 17 13 12 17 21 22 21 20 19 19 19 18 18 18 18 18 18 19 20 21 22 23
25 25 25 25 25 25 24 23 23 23 22 22 21 20 19 17 16 15 13 12 11 10 10 10 11 12 13 13 14 14 14 15 15 14 14 15 16 15 16 16 16 16 16 16 17 17 17 17 17 18 17 17 17 17 16 15 15 15 16 17 17 17 18 18 17 15 13 15 19 21 21 21 21 21 20 19 18 18 18 19 19 19 20 21 22
27 26 25 25 26 26 26 25 25 25 24 25 24 23 21 20 19 17 16 14 13 13 12 12 11 11 12 13 14 15 16 17 16 16 16 17 17 16 17 18 18 18 17 17 17 18 17 17 17 16 16 16 17 19 19 19 18 17 17 17 16 16 18 20 21 19 15 16 17 18 19 21 22 23 22 22 20 18 18 19 19 19 20 20 21
27 27 26 26 26 27 27 26 26 26 26 27 27 26 25 23 22 20 19 18 16 16 16 15 14 14 13 14 14 15 17 18 18 18 18 18 18 18 18 20 20 19 19 18 18 19 18 17 17 17 17 18 19 20 20 19 19 17 16 16 17 18 18 19 20 20 19 19 16 14 16 19 21 23 23 23 22 19 18 20 20 19 20 21 21
26 27 27 27 26 27 28 28 28 28 28 29 29 28 27 26 24 23 22 21 20 20 20 19 18 17 17 16 15 16 18 20 19 19 20 20 20 20 20 22 22 21 21 20 21 21 20 19 19 18 18 18 18 17 16 15 15 16 17 17 18 18 17 17 18 19 19 20 17 15 16 16 16 19 21 22 23 21 20 21 22 20 21 21 21
26 26 27 27 27 28 29 30 30 30 31 31 31 30 29 28 27 26 25 25 24 23 23 23 22 21 20 19 18 19 21 22 21 20 21 22 22 22 22 23 23 23 23 22 22 22 22 22 20 18 17 17 15 14 14 14 14 16 16 15 15 15 15 16 17 17 18 19 19 19 19 18 16 17 18 17 18 21 22 22 23 23 22 21 22
29 28 28 28 28 28 28 30 31 32 33 34 34 33 31 30 29 28 28 28 27 27 27 26 26 25 24 23 23 23 24 24 24 22 22 23 24 24 24 24 24 24 24 23 24 24 23 22 20 18 18 18 17 16 16 15 14 14 14 14 15 15 15 16 15 15 17 19 19 21 23 22 20 21 21 17 15 19 23 21 21 22 22 21 21
31 31 30 30 30 29 29 29 31 32 34 36 36 36 34 33 32 31 31 30 30 30 30 30 30 29 28 27 26 25 24 25 26 25 24 25 25 25 25 25 26 26 26 25 25 25 24 23 22 21 20 19 20 19 18 17 16 16 17 18 18 17 17 17 16 16 18 19 20 22 24 23 21 22 22 18 15 19 23 21 20 21 20 20 20
34 33 32 31 31 31 31 32 32 32 34 36 37 37 36 35 34 33 33 33 32 31 31 32 32 32 31 30 30 28 26 27 28 27 26 26 26 26 27 27 28 29 28 28 28 26 26 25 26 25 24 24 24 24 22 21 22 22 22 22 21 19 18 18 19 19 20 21 22 24 26 24 20 18 17 16 18 21 22 21 20 20 19 19 19
35 34 33 32 32 32 32 33 34 33 34 35 37 36 35 35 35 35 35 35 35 34 34 34 34 34 33 32 32 31 30 30 30 29 27 27 28 28 28 29 29 30 30 30 29 29 28 28 29 29 29 28 27 26 25 25 25 25 23 23 21 20 20 21 22 23 23 25 25 25 25 23 17 14 15 15 19 23 23 20 20 20 19 18 18
33 33 32 32 33 33 32 32 33 33 34 34 35 35 34 34 34 34 35 35 36 36 36 36 36 35 35 34 33 33 32 32 32 30 29 28 28 29 30 30 30 30 31 31 31 30 30 30 30 30 29 29 28 27 26 26 26 25 23 23 23 23 23 24 25 26 24 23 23 22 21 17 13 13 15 14 18 23 23 21 19 17 17 17 17
30 31 32 32 32 32 32 32 33 33 33 33 34 34 34 33 33 33 34 35 36 37 37 37 37 36 36 35 35 34 33 33 33 32 30 29 29 30 30 31 31 30 30 31 31 31 31 30 31 31 30 29 29 29 27 26 26 26 25 25 25 25 24 24 24 25 21 17 19 21 19 15 13 14 14 14 16 19 19 20 19 15 14 16 17
30 30 31 32 32 32 32 32 33 34 34 33 33 33 33 32 31 32 33 34 36 37 38 38 38 38 37 37 36 36 35 35 34 33 31 30 30 31 30 31 31 30 29 28 29 32 32 31 31 31 31 30 30 30 30 28 27 27 26 27 28 26 24 22 21 21 17 14 15 17 18 16 14 14 15 14 15 17 17 18 20 18 14 15 17
29 29 29 28 30 31 32 33 33 34 34 34 34 34 33 32 31 31 32 33 35 37 38 39 39 39 39 39 38 37 37 36 35 34 32 31 31 31 31 31 32 32 31 27 26 28 30 31 31 31 31 32 31 31 31 30 29 28 28 29 28 25 22 21 19 18 17 16 15 15 16 16 14 13 14 14 15 17 16 16 20 21 17 16 18
28 27 27 27 27 28 30 32 32 33 34 34 35 35 34 33 32 32 32 32 34 36 37 39 40 40 41 41 40 40 39 37 36 35 34 33 32 32 32 32 33 34 32 29 26 25 25 28 30 31 30 30 31 32 32 31 30 30 30 31 29 26 24 22 20 18 18 16 14 16 17 17 13 13 14 14 14 15 15 17 22 23 20 20 20
Wind_Direction
106 103 100 97 96 100 102 102 102 101 102 105 108 107 105 106 107 107 109 108 107 106 103 101 99 98 97 95 95 101 105 109 112 111 109 98 83 82 96 107 114 120 122 119 116 105 96 93 91 85 79 76 75 75 74 69 63 58 55 51 45 41 38 36 34 32 29 26 22 19 18 15 14 14 13 12 7 4 10 17 22 27 30 30 29
110 105 100 97 98 101 102 102 102 101 102 105 107 106 105 108 108 108 111 114 118 117 114 112 113 109 104 104 103 102 104 108 111 112 113 109 95 86 89 96 100 101 101 101 102 99 98 97 93 86 80 74 68 67 67 63 56 48 42 39 39 39 38 35 30 25 22 15 11 12 10 7 9 8 6 7 3 5 15 22 21 24 28 27 26
113 104 99 99 101 103 104 102 99 100 103 105 108 109 110 111 112 114 112 113 117 117 118 116 115 113 110 110 110 109 109 108 107 110 115 118 113 100 89 89 91 90 90 93 96 99 99 96 89 82 75 69 67 63 58 49 41 33 29 28 31 32 28 25 19 14 11 5 3 6 4 2 4 2 1 1 1 11 24 25 22 24 26 27 26
115 110 107 106 105 103 105 104 100 100 103 106 109 111 112 110 114 118 113 110 111 113 115 115 115 115 113 110 109 110 110 108 111 117 118 119 121 119 103 91 87 86 87 91 95 95 91 88 80 75 72 65 60 57 47 37 31 24 22 21 21 21 13 9 7 3 2 2 2 2 0 358 358 359 358 359 7 23 30 26 26 27 28 29 28
119 115 109 105 109 109 107 105 104 104 106 110 111 112 112 110 112 114 111 108 109 110 111 116 119 117 117 116 116 118 114 113 117 117 113 112 116 119 114 102 93 86 83 82 84 82 77 73 71 69 68 61 54 50 45 37 30 22 21 21 20 17 9 5 3 360 1 3 1 0 2 0 357 359 1 8 22 31 29 27 29 28 29 30 27
126 125 113 104 108 104 104 106 107 109 113 114 114 114 114 112 111 110 109 110 114 112 111 116 118 118 120 120 122 123 119 121 125 121 119 122 115 109 107 103 99 97 91 81 71 66 65 63 62 62 59 54 48 44 39 33 27 23 23 23 22 18 11 8 5 4 8 11 12 13 14 14 14 17 19 25 32 33 33 34 34 30 29 29 27
131 134 122 112 109 98 102 108 109 114 117 118 118 118 117 114 113 111 111 113 116 115 116 118 117 119 120 119 121 118 117 125 125 121 123 127 115 102 100 96 87 82 83 81 63 50 47 50 50 49 48 44 39 34 31 27 24 22 24 25 23 23 17 15 14 17 22 25 29 31 31 34 36 38 36 35 34 35 36 35 35 31 27 26 26
126 129 123 122 123 124 119 116 118 120 122 120 119 120 121 119 116 118 123 119 114 115 118 119 117 119 117 116 117 114 117 122 119 122 130 124 109 96 91 86 80 74 68 62 55 40 30 36 43 41 38 36 32 31 30 28 27 27 30 34 34 34 32 31 33 34 37 39 41 43 43 44 44 43 40 37 35 33 31 29 28 25 22 19 18
123 119 120 129 129 129 121 120 124 121 123 121 121 124 125 125 120 123 128 119 114 118 120 119 121 121 117 119 117 111 118 122 123 130 127 111 108 106 88 78 73 72 71 57 49 40 25 29 40 40 34 34 35 35 40 40 41 43 43 47 50 50 48 47 48 48 47 47 48 48 48 46 43 41 37 33 30 26 23 20 17 14 11 7 5
123 114 111 120 120 125 118 121 125 121 121 120 126 129 129 131 128 127 127 119 118 124 124 124 121 117 116 121 121 114 118 121 123 122 111 98 98 97 83 77 74 68 81 87 67 57 39 33 41 44 38 38 47 49 53 57 57 59 58 59 59 58 57 55 54 53 51 49 48 46 43 42 39 35 30 25 21 17 13 8 5 2 357 354 351
117 111 109 116 121 133 124 121 124 121 121 121 129 131 130 136 135 132 128 123 126 126 124 121 112 114 117 122 123 119 121 118 113 106 105 105 92 89 78 69 79 77 80 88 80 68 58 50 47 51 44 42 53 58 60 63 63 64 63 63 62 60 59 57 54 51 46 44 40 38 35 33 29 25 20 15 10 5 1 356 351 347 343 341 338
112 113 114 117 126 135 124 122 122 122 124 126 132 134 134 136 136 136 128 120 120 118 118 113 106 109 109 117 118 112 116 112 110 106 102 106 94 96 104 68 65 70 62 66 82 79 66 60 57 54 49 49 50 51 57 60 59 60 60 60 59 58 57 54 50 45 41 37 33 29 26 23 20 16 11 5 359 353 348 344 340 336 333 330 328
114 117 115 111 119 123 123 126 122 124 130 134 140 139 138 138 138 137 129 120 116 118 123 106 94 98 93 97 102 101 101 94 103 114 106 108 103 95 107 100 67 61 54 52 63 68 58 44 51 46 39 53 48 41 52 57 54 55 58 59 58 57 56 52 47 41 37 31 26 21 16 12 9 4 359 352 345 340 337 333 330 326 324 322 320
115 115 113 106 111 115 123 128 125 129 133 134 139 139 139 140 140 137 131 127 121 127 128 99 78 90 94 99 107 103 96 88 95 112 113 111 111 99 92 97 95 80 64 49 45 56 55 24 37 46 47 58 55 42 50 55 54 56 60 61 62 60 56 51 45 39 31 23 16 10 5 0 356 351 346 340 334 332 329 326 324 321 319 317 315
120 115 114 115 119 119 122 126 127 131 132 133 138 142 144 144 141 137 130 126 122 124 121 101 85 81 81 96 113 106 93 96 101 105 113 110 109 107 92 94 98 87 74 66 52 56 76 52 41 54 62 64 65 60 56 55 55 59 59 58 55 52 46 41 35 28 21 13 5 359 354 350 346 342 337 332 329 328 326 324 321 318 316 315 315
132 126 123 126 129 123 123 126 128 134 140 144 145 148 148 145 146 141 128 119 120 121 111 97 88 75 67 77 106 106 91 96 102 101 108 108 107 100 88 98 97 75 74 78 77 64 64 58 45 60 72 75 75 74 66 57 56 56 52 48 43 35 27 21 16 10 5 357 349 345 341 338 335 332 328 325 324 323 322 320 318 316 315 315 317
144 138 136 136 133 129 126 127 129 139 147 150 149 149 147 146 153 148 135 126 122 122 116 99 81 79 79 69 87 93 79 84 99 99 102 102 103 92 76 92 96 70 78 85 79 78 71 55 59 72 80 79 73 71 65 55 51 46 38 28 19 12 5 360 355 350 344 339 335 332 329 327 325 323 322 321 321 321 320 319 317 315 316 317 319
153 146 146 148 143 139 134 131 135 144 148 151 151 146 142 150 157 152 147 142 131 118 116 112 86 79 79 69 73 76 58 60 89 100 106 99 92 89 75 81 93 75 77 92 85 84 92 73 65 69 72 71 66 60 56 47 33 21 13 6 1 356 352 347 342 337 333 330 329 327 325 323 321 319 318 318 318 319 320 320 318 316 317 319 321
162 156 152 152 150 148 143 139 142 150 153 153 151 145 150 165 168 164 164 159 144 126 119 115 82 78 80 71 65 64 61 60 77 101 108 92 79 87 80 77 96 94 86 100 103 96 101 91 76 50 39 47 45 40 33 21 13 11 8 3 359 354 349 344 339 334 329 326 324 323 322 320 319 318 317 317 318 319 321 322 321 321 322 324 326
171 164 156 152 151 150 151 151 153 161 165 161 159 164 177 178 176 180 177 171 166 147 138 131 93 90 93 90 75 59 73 72 90 101 95 91 91 89 81 81 94 95 90 98 102 102 98 82 77 70 17 16 20 18 8 2 3 4 4 1 357 353 348 342 337 331 325 322 322 321 322 321 321 320 320 321 323 325 327 329 330 329 329 329 329
183 174 163 157 154 152 153 157 163 169 168 171 176 186 192 185 185 191 183 181 186 171 154 144 123 114 81 82 92 70 71 81 103 93 87 94 93 91 90 90 94 88 79 88 98 100 93 66 60 57 24 5 6 4 357 355 357 355 354 355 354 349 345 340 337 332 328 327 328 327 328 329 329 330 332 333 336 338 339 339 336 334 332 331 330
195 189 177 167 163 160 158 160 166 176 175 180 187 193 196 191 192 195 190 190 190 182 174 166 159 162 166 104 105 95 84 90 98 97 110 104 90 102 101 95 102 95 75 84 97 95 84 69 59 49 32 6 351 352 351 348 352 352 352 353 351 348 344 342 342 341 341 343 343 340 340 341 343 345 347 348 347 346 344 340 336 332 330 330 331
200 202 192 182 178 172 173 174 173 180 182 184 185 186 193 199 200 199 198 199 193 193 194 195 219 212 211 219 161 126 97 88 98 106 109 102 90 95 90 80 94 94 76 90 107 96 84 76 62 51 21 354 343 348 346 343 350 356 357 357 356 353 350 349 351 355 357 359 357 353 351 352 352 352 352 350 349 346 342 338 334 332 331 331 333
200 206 204 198 196 187 186 187 182 182 183 184 185 181 185 197 201 197 200 203 202 207 205 203 236 245 213 211 195 186 181 114 119 117 98 102 99 71 79 88 96 89 78 101 126 102 85 77 38 328 313 324 337 344 342 343 352 1 1 1 2 1 358 357 359 2 3 2 360 356 352 351 350 349 348 347 345 342 339 337 335 335 334 335 336
203 205 207 207 208 203 199 197 192 188 184 185 190 187 185 190 195 194 200 207 208 210 208 208 221 217 190 191 197 209 212 226 193 158 157 117 112 61 62 93 120 90 79 103 146 135 90 68 353 318 307 317 329 338 348 349 351 360 2 1 5 5 2 0 360 1 1 359 357 352 347 345 345 345 344 343 342 340 339 340 339 339 339 339 339
210 207 207 208 210 210 208 206 199 193 189 190 194 196 192 189 191 191 199 211 211 210 207 211 222 219 208 199 194 217 235 220 193 181 188 176 158 75 29 69 174 105 91 96 125 140 81 47 350 327 323 330 334 340 354 355 350 357 1 0 3 3 0 359 358 358 357 355 354 350 345 343 343 343 342 341 340 341 343 345 346 345 345 346 347
218 213 212 212 212 213 213 212 206 198 197 197 199 203 199 193 195 193 199 210 210 209 210 216 224 224 222 221 210 223 255 215 194 203 192 187 211 141 51 38 151 111 103 100 113 115 67 73 333 339 342 348 350 351 356 357 352 354 359 0 359 357 357 357 355 354 353 352 352 350 346 343 342 342 341 341 341 343 349 352 353 352 351 352 351
221 216 215 215 214 213 213 213 212 206 204 206 207 210 205 199 201 198 200 210 209 208 213 218 224 228 230 233 226 223 246 220 195 206 201 174 140 139 106 85 90 83 86 90 112 90 51 12 309 332 345 354 354 354 356 354 348 348 354 357 354 351 354 354 353 352 350 349 349 348 346 343 342 342 341 341 342 347 354 358 357 356 356 355 352
222 218 216 218 217 218 216 214 215 213 211 213 213 215 213 208 207 204 202 210 211 209 214 217 219 224 231 239 238 231 238 228 203 210 212 179 144 141 137 108 66 49 39 21 32 50 22 17 329 325 334 352 356 352 350 341 339 344 347 348 348 349 350 350 350 350 347 347 347 346 346 345 343 343 343 343 344 350 358 0 359 359 359 356 353
222 221 218 216 218 222 222 219 217 215 215 216 218 219 218 217 216 212 209 212 213 213 220 219 215 218 220 227 235 232 235 231 213 222 227 201 181 190 202 258 8 40 2 345 337 294 344 1 349 327 330 345 353 345 336 327 330 338 337 338 341 343 345 346 346 346 345 345 346 345 346 347 344 343 344 344 347 353 359 1 0 360 360 358 356
225 222 218 216 218 220 223 224 221 218 217 217 220 223 222 223 223 220 221 222 219 220 228 226 221 228 225 222 229 227 225 224 213 220 231 221 212 214 235 278 308 323 330 338 307 294 330 327 323 332 330 333 335 326 320 319 324 329 329 329 332 336 342 344 342 343 344 343 344 345 345 347 345 344 344 344 347 352 357 360 1 0 359 359 358
228 225 220 220 223 220 220 225 223 221 222 220 222 225 225 227 225 221 227 234 230 226 229 226 226 232 233 229 234 232 223 220 216 219 231 235 232 230 241 269 295 303 313 326 306 301 310 300 311 330 322 321 325 320 320 320 320 323 324 322 323 329 340 344 339 337 341 343 342 343 344 345 346 344 342 343 344 347 353 356 358 358 358 359 358
229 229 225 223 226 223 219 221 222 222 222 222 224 226 226 229 229 223 226 233 234 231 230 226 225 232 234 231 236 239 230 224 221 222 230 239 244 247 253 266 278 281 292 305 301 299 304 301 307 316 314 317 319 314 317 319 316 317 318 317 320 324 330 339 336 331 334 339 339 339 341 342 344 343 340 341 341 342 346 350 352 354 356 357 357
228 230 230 227 227 225 221 222 224 224 224 223 225 228 228 230 233 232 234 238 237 234 234 230 228 231 235 234 237 241 238 232 228 228 232 237 241 246 254 264 268 266 279 292 294 296 299 299 301 308 315 318 318 315 315 315 311 312 313 312 314 315 317 327 333 323 325 333 334 335 339 339 341 341 338 338 340 338 340 342 344 347 350 353 354
230 230 230 230 230 227 223 224 226 226 226 225 226 229 230 230 233 234 237 242 242 239 238 237 235 236 237 238 237 237 238 239 237 234 235 238 240 243 249 257 262 263 269 279 285 291 292 292 297 303 305 307 312 314 312 313 311 312 314 311 309 309 309 320 330 316 315 326 330 330 334 336 335 336 335 334 335 335 335 335 336 340 343 347 349
232 232 230 230 233 231 226 225 227 227 227 226 225 229 231 231 233 235 236 241 243 243 242 240 238 239 240 242 239 234 235 241 244 241 239 244 249 253 258 264 267 267 266 272 280 287 290 292 295 298 299 303 309 310 310 313 311 309 310 308 307 306 305 313 324 311 310 321 325 326 330 332 331 332 330 329 330 331 331 331 331 333 336 339 343
232 234 233 231 233 234 231 229 230 229 228 226 224 226 230 232 235 238 240 243 244 245 248 246 243 242 242 242 241 238 238 243 247 246 243 247 251 255 259 261 265 267 268 272 278 283 288 291 292 296 300 303 305 306 307 309 309 308 307 306 305 304 302 305 309 309 314 320 323 325 327 328 329 329 327 327 327 327 328 329 329 328 329 331 337
232 234 235 233 233 235 234 233 233 232 229 226 224 223 226 232 236 238 240 243 247 248 252 253 253 252 251 249 246 243 243 244 245 245 244 247 250 253 256 258 260 265 269 273 277 280 283 287 290 294 298 300 301 303 303 304 305 304 303 304 304 302 302 302 301 306 313 316 320 324 325 327 328 327 325 325 325 326 326 328 328 326 325 326 332
233 233 235 236 235 235 235 234 234 233 231 228 226 224 225 230 235 238 239 242 248 251 253 254 255 254 255 256 254 251 249 247 246 246 248 251 252 251 254 259 261 263 267 271 274 278 280 283 287 289 291 293 295 298 300 302 303 303 303 304 303 300 300 300 300 302 302 306 317 322 321 322 323 322 322 322 323 325 329 331 332 329 326 326 329
235 233 234 236 237 237 236 235 234 234 233 230 228 228 228 229 234 239 241 243 247 252 255 257 256 254 253 253 255 255 255 253 249 247 248 250 252 252 254 258 261 262 264 266 268 272 275 276 278 280 282 284 288 293 298 300 302 302 301 300 300 299 298 298 299 299 298 303 313 316 314 316 318 318 319 321 322 325 330 333 334 331 328 327 329
237 235 234 234 237 239 239 237 236 236 235 233 231 231 232 232 235 240 244 246 248 252 256 258 259 260 259 256 253 252 256 259 255 250 249 249 251 253 255 257 260 261 262 264 266 269 271 272 274 276 279 281 285 289 291 292 294 297 299 299 298 299 297 293 295 297 296 300 308 310 311 314 311 309 314 319 320 321 326 329 330 331 330 328 328
239 238 236 235 235 237 240 240 238 237 237 237 236 235 236 238 239 242 246 249 251 253 256 259 260 261 262 261 258 255 257 260 259 254 251 250 251 252 253 256 259 260 261 263 264 266 269 270 271 272 271 272 274 276 278 283 287 291 295 294 291 292 293 292 294 294 293 296 303 306 309 312 307 300 305 311 307 309 320 326 327 329 330 329 328
241 240 240 239 237 236 238 240 241 240 240 241 241 240 240 241 242 245 248 251 253 255 256 258 259 260 261 262 263 262 262 261 258 256 253 251 251 251 252 254 256 258 259 260 262 264 266 267 268 267 267 267 270 272 276 282 284 282 282 283 284 287 290 291 292 291 292 294 298 302 306 312 311 307 311 311 296 300 315 322 321 323 325 326 327
244 244 242 242 241 239 238 239 241 242 242 243 244 244 243 242 243 245 248 252 254 256 257 258 259 259 259 261 261 261 261 260 258 257 255 253 253 252 253 253 254 255 256 257 259 261 263 265 265 265 265 267 271 275 279 281 279 277 278 280 283 285 287 288 287 287 290 291 296 302 305 309 310 308 313 313 297 301 313 316 314 317 321 323 325
249 248 246 245 244 243 242 241 242 243 244 245 245 245 244 244 244 244 247 249 252 254 256 257 258 258 258 258 259 257 257 258 258 257 256 256 256 254 254 253 253 254 255 256 258 259 260 262 264 266 268 270 274 279 281 281 281 281 282 282 282 282 282 284 284 284 286 290 296 301 302 306 307 302 304 303 296 303 313 313 311 314 316 318 322
253 251 248 247 247 245 244 244 245 245 245 247 247 246 244 244 244 244 245 247 249 251 253 255 256 257 257 256 256 256 255 256 256 255 254 256 257 257 256 255 255 256 257 257 258 258 259 260 263 267 271 273 277 280 281 281 282 282 283 283 282 280 280 282 283 283 286 290 295 298 298 302 303 294 294 296 294 301 309 309 308 310 311 315 319
255 255 253 250 249 248 246 246 246 247 246 247 248 247 245 242 242 243 244 245 247 248 250 251 252 253 254 254 254 254 254 254 253 253 253 254 256 257 257 257 257 258 259 260 260 260 260 262 264 268 272 273 274 276 277 278 279 281 283 283 282 282 282 282 285 288 291 292 294 295 295 297 297 291 295 297 293 296 303 305 306 305 305 311 317
252 254 257 255 252 249 248 248 248 248 248 248 249 248 247 245 243 243 243 244 245 247 248 249 250 250 251 251 252 252 252 252 252 251 252 253 254 254 255 257 258 259 260 263 264 263 262 263 265 268 270 271 272 273 275 275 275 277 278 278 280 282 280 280 284 288 290 286 285 290 290 290 293 293 294 296 292 292 297 302 306 306 302 306 313
250 249 254 257 256 253 251 250 250 250 249 248 249 249 249 247 245 245 245 244 245 246 247 247 249 249 249 249 250 250 250 250 250 250 250 252 253 252 252 254 255 256 257 259 264 268 267 266 266 268 269 270 270 272 273 273 273 273 272 273 278 280 276 274 276 280 280 272 271 279 282 283 290 292 293 294 289 291 297 298 300 308 310 306 309
252 248 246 251 255 257 257 255 253 253 251 250 250 249 249 248 247 246 246 246 247 248 248 248 248 249 249 249 248 248 248 248 249 249 250 251 251 250 250 251 254 254 254 254 258 265 269 269 267 266 267 269 270 270 271 272 272 271 268 271 276 274 269 267 268 269 272 272 268 265 267 275 284 287 291 293 289 293 299 290 289 300 308 305 307
254 250 245 243 247 253 258 259 259 258 255 253 252 251 250 249 247 247 247 247 247 248 249 250 249 249 249 248 248 247 247 247 248 248 250 250 249 249 248 249 251 253 254 254 253 255 261 266 269 269 268 268 268 268 269 270 270 269 269 272 274 269 262 261 263 264 267 270 268 263 264 272 279 281 284 288 288 292 294 286 285 293 298 297 300